Location: Newark
(48.1500°N, 2.9667°W)
Time: 17:58:25
(UTC+00:00)

Transit 2A - Pass Details

Date: 27 January 2020
Orbit: 599 x 959 km, 66.7° (Epoch: 25 February)

Event Time Altitude Azimuth Distance (km) Brightness Sun altitude
Rises 03:39:39 0° 327° (NNW) 2,952 - -40.9°
Reaches altitude 10° 03:41:55 10° 332° (NNW) 2,078 - -40.5°
Maximum altitude 03:46:31 54° 51° (NE) 849 - -39.8°
Drops below altitude 10° 03:51:34 10° 129° (SE) 2,276 - -39.0°
Exits shadow 03:51:55 - 129° (SE) 2,404 8.9 -38.9°
Sets 03:54:08 0° 133° (SE) 3,260 9.6 -38.6°
